Temp: 2.8°C   Baro: 999.4mb
  Wind: 2.9mph   Dir: WNW (298°)
  Rain: 0.0mm (0.0mm/hr)
  Solar: 0W/m2  Hum: 82%
 
Bath Spa Weather Historical Data
Daily Summary for November 1, 2019 Units:  Metric    English   Both
Next Day »
Daily Weekly Monthly Yearly Custom
  High: Low: Average:
Temperature: 15.8 °C 10.3 °C 13.9 °C
Dew Point: 14.2 °C 9.5 °C 12.7 °C
Humidity: 96% 85% 92%
Wind Speed: 19.5km/h 0.0km/h 6.9km/h
Wind Gust: 25.7km/h - -
Wind direction- - SSW
Pressure: 1010.4 hPa 985.7 hPa -
Precipitation: 2.3 mm    
Historical Graphs
 
 
Tabular Data for November 1, 2019
Time Temperature Dew Point Pressure Wind direction Wind Speed Wind Gust Humidity Rainfall Rate (Hourly) solar
00:00 10.3 °C 9.5 °C 1010.4 hPa ESE 1.4 km/h 4.8 km/h 95% 0.5 mm 0.00 W/m2
00:05 10.3 °C 9.5 °C 1010.4 hPa East 1.4 km/h 4.8 km/h 95% 0.5 mm 0.00 W/m2
00:10 10.3 °C 9.5 °C 1010.4 hPa Calm   4.8 km/h 95% 0.5 mm 0.00 W/m2
00:15 10.3 °C 9.5 °C 1010.0 hPa East 1.4 km/h 3.2 km/h 95% 0.5 mm 0.00 W/m2
00:20 10.3 °C 9.5 °C 1010.0 hPa Calm   3.2 km/h 95% 0.5 mm 0.00 W/m2
00:25 10.3 °C 9.5 °C 1010.0 hPa East 1.4 km/h 8.0 km/h 95% 0.5 mm 0.00 W/m2
00:30 10.4 °C 9.6 °C 1010.0 hPa East 1.4 km/h 6.4 km/h 95% 0.3 mm 0.00 W/m2
00:35 10.4 °C 9.6 °C 1009.7 hPa East 4.7 km/h 4.8 km/h 95% 0.3 mm 0.00 W/m2
00:40 10.4 °C 9.6 °C 1009.7 hPa Calm   3.2 km/h 95% 0.3 mm 0.00 W/m2
00:45 10.4 °C 9.6 °C 1009.4 hPa Calm   3.2 km/h 95% 0.0 mm 0.00 W/m2
00:50 10.5 °C 9.7 °C 1009.0 hPa ESE 3.2 km/h 8.0 km/h 95% 0.0 mm 0.00 W/m2
00:55 10.5 °C 9.7 °C 1009.0 hPa Calm   3.2 km/h 95% 0.3 mm 0.00 W/m2
01:00 10.6 °C 9.8 °C 1009.0 hPa ESE 1.4 km/h 3.2 km/h 95% 0.3 mm 0.00 W/m2
01:05 10.6 °C 9.8 °C 1008.7 hPa Calm   6.4 km/h 95% 0.3 mm 0.00 W/m2
01:10 10.7 °C 9.9 °C 1008.7 hPa ESE 3.2 km/h 8.0 km/h 95% 0.3 mm 0.00 W/m2
01:15 10.7 °C 9.9 °C 1008.7 hPa ESE 4.7 km/h 8.0 km/h 95% 0.3 mm 0.00 W/m2
01:20 10.8 °C 10.0 °C 1008.4 hPa SE 3.2 km/h 9.7 km/h 95% 0.3 mm 0.00 W/m2
01:25 10.9 °C 10.1 °C 1008.4 hPa SE 4.7 km/h 6.4 km/h 95% 0.3 mm 0.00 W/m2
01:30 10.9 °C 10.1 °C 1008.4 hPa ESE 3.2 km/h 8.0 km/h 95% 0.3 mm 0.00 W/m2
01:35 11.0 °C 10.2 °C 1008.0 hPa SE 4.7 km/h 8.0 km/h 95% 0.3 mm 0.00 W/m2
01:40 11.0 °C 10.2 °C 1008.0 hPa SE 6.4 km/h 6.4 km/h 95% 0.3 mm 0.00 W/m2
01:45 11.0 °C 10.2 °C 1008.0 hPa SE 4.7 km/h 6.4 km/h 95% 0.3 mm 0.00 W/m2
01:50 11.1 °C 10.5 °C 1007.7 hPa SE 3.2 km/h 8.0 km/h 96% 0.5 mm 0.00 W/m2
01:55 11.1 °C 10.5 °C 1007.7 hPa SE 1.4 km/h 4.8 km/h 96% 0.5 mm 0.00 W/m2
02:00 11.2 °C 10.6 °C 1007.3 hPa SE 6.4 km/h 9.7 km/h 96% 0.3 mm 0.00 W/m2
02:05 11.3 °C 10.7 °C 1007.3 hPa SE 3.2 km/h 8.0 km/h 96% 0.3 mm 0.00 W/m2
02:10 11.4 °C 10.6 °C 1007.0 hPa SE 6.4 km/h 8.0 km/h 95% 0.3 mm 0.00 W/m2
02:15 11.4 °C 10.8 °C 1006.7 hPa ESE 4.7 km/h 9.7 km/h 96% 0.3 mm 0.00 W/m2
02:20 11.5 °C 10.9 °C 1006.7 hPa ESE 13.0 km/h 12.9 km/h 96% 0.3 mm 0.00 W/m2
02:25 11.6 °C 11.0 °C 1006.3 hPa SE 3.2 km/h 11.3 km/h 96% 0.3 mm 0.00 W/m2
02:30 11.7 °C 11.1 °C 1006.3 hPa SE 4.7 km/h 9.7 km/h 96% 0.3 mm 0.00 W/m2
02:35 11.7 °C 11.1 °C 1006.3 hPa SE 3.2 km/h 8.0 km/h 96% 0.3 mm 0.00 W/m2
02:40 11.7 °C 11.1 °C 1006.0 hPa ESE 7.9 km/h 11.3 km/h 96% 0.3 mm 0.00 W/m2
02:45 11.8 °C 11.2 °C 1005.6 hPa ESE 4.7 km/h 6.4 km/h 96% 0.3 mm 0.00 W/m2
02:50 11.9 °C 11.3 °C 1005.6 hPa ESE 1.4 km/h 12.9 km/h 96% 0.0 mm 0.00 W/m2
02:55 12.0 °C 11.4 °C 1005.3 hPa ESE 6.4 km/h 8.0 km/h 96% 0.0 mm 0.00 W/m2
03:00 12.0 °C 11.4 °C 1005.3 hPa SE 7.9 km/h 14.5 km/h 96% 0.0 mm 0.00 W/m2
03:05 12.1 °C 11.5 °C 1005.3 hPa ESE 7.9 km/h 8.0 km/h 96% 0.0 mm 0.00 W/m2
03:10 12.1 °C 11.5 °C 1005.0 hPa SE 6.4 km/h 8.0 km/h 96% 0.0 mm 0.00 W/m2
03:15 12.1 °C 11.5 °C 1005.0 hPa SE 4.7 km/h 9.7 km/h 96% 0.0 mm 0.00 W/m2
03:20 12.1 °C 11.5 °C 1005.0 hPa SE 3.2 km/h 9.7 km/h 96% 0.0 mm 0.00 W/m2
03:25 12.2 °C 11.6 °C 1005.0 hPa SE 3.2 km/h 8.0 km/h 96% 0.0 mm 0.00 W/m2
03:30 12.2 °C 11.6 °C 1004.6 hPa Calm   6.4 km/h 96% 0.0 mm 0.00 W/m2
03:35 12.2 °C 11.6 °C 1004.6 hPa Calm   6.4 km/h 96% 0.0 mm 0.00 W/m2
03:40 12.2 °C 11.6 °C 1004.6 hPa SE 3.2 km/h 9.7 km/h 96% 0.3 mm 0.00 W/m2
03:45 12.3 °C 11.7 °C 1004.3 hPa East 3.2 km/h 6.4 km/h 96% 0.3 mm 0.00 W/m2
03:50 12.2 °C 11.6 °C 1004.3 hPa East 7.9 km/h 8.0 km/h 96% 0.3 mm 0.00 W/m2
03:55 12.3 °C 11.7 °C 1003.9 hPa ESE 3.2 km/h 8.0 km/h 96% 0.3 mm 0.00 W/m2
04:00 12.3 °C 11.7 °C 1003.9 hPa ESE 3.2 km/h 11.3 km/h 96% 0.3 mm 0.00 W/m2
04:05 12.3 °C 11.7 °C 1003.9 hPa SE 9.7 km/h 12.9 km/h 96% 0.3 mm 0.00 W/m2
04:10 12.4 °C 11.8 °C 1003.9 hPa SE 3.2 km/h 4.8 km/h 96% 0.3 mm 0.00 W/m2
04:15 12.4 °C 11.8 °C 1003.6 hPa Calm   11.3 km/h 96% 0.3 mm 0.00 W/m2
04:20 12.6 °C 12.0 °C 1003.6 hPa SSE 6.4 km/h 11.3 km/h 96% 0.3 mm 0.00 W/m2
04:25 12.6 °C 12.0 °C 1003.6 hPa South 11.1 km/h 16.1 km/h 96% 0.3 mm 0.00 W/m2
04:30 12.7 °C 12.1 °C 1003.3 hPa South 13.0 km/h 12.9 km/h 96% 0.3 mm 0.00 W/m2
04:35 12.8 °C 12.2 °C 1003.3 hPa SSE 6.4 km/h 22.5 km/h 96% 0.3 mm 0.00 W/m2
04:40 12.8 °C 12.2 °C 1002.9 hPa SE 13.0 km/h 12.9 km/h 96% 0.0 mm 0.00 W/m2
04:45 12.9 °C 12.3 °C 1002.9 hPa South 7.9 km/h 14.5 km/h 96% 0.0 mm 0.00 W/m2
04:50 12.9 °C 12.3 °C 1002.9 hPa SSE 7.9 km/h 12.9 km/h 96% 0.0 mm 0.00 W/m2
04:55 12.9 °C 12.3 °C 1002.9 hPa South 7.9 km/h 9.7 km/h 96% 0.0 mm 0.00 W/m2
05:00 12.9 °C 12.3 °C 1002.6 hPa South 7.9 km/h 16.1 km/h 96% 0.0 mm 0.00 W/m2
05:05 13.0 °C 12.4 °C 1002.6 hPa SSE 16.3 km/h 24.1 km/h 96% 0.0 mm 0.00 W/m2
05:10 13.0 °C 12.4 °C 1002.3 hPa SSW 17.7 km/h 17.7 km/h 96% 0.0 mm 0.00 W/m2
05:15 13.1 °C 12.5 °C 1002.3 hPa South 6.4 km/h 14.5 km/h 96% 0.0 mm 0.00 W/m2
05:20 13.1 °C 12.5 °C 1002.3 hPa SE 4.7 km/h 24.1 km/h 96% 0.0 mm 0.00 W/m2
05:25 13.1 °C 12.5 °C 1002.3 hPa SSW 9.7 km/h 14.5 km/h 96% 0.0 mm 0.00 W/m2
05:30 13.1 °C 12.3 °C 1001.9 hPa South 7.9 km/h 11.3 km/h 95% 0.0 mm 0.00 W/m2
05:35 13.1 °C 12.3 °C 1001.9 hPa SSE 7.9 km/h 14.5 km/h 95% 0.0 mm 0.00 W/m2
05:40 13.2 °C 12.4 °C 1001.9 hPa South 17.7 km/h 24.1 km/h 95% 0.0 mm 0.00 W/m2
05:45 13.2 °C 12.4 °C 1001.9 hPa South 7.9 km/h 17.7 km/h 95% 0.0 mm 0.00 W/m2
05:50 13.2 °C 12.4 °C 1001.9 hPa SSE 1.4 km/h 11.3 km/h 95% 0.0 mm 0.00 W/m2
05:55 13.2 °C 12.4 °C 1001.9 hPa South 4.7 km/h 16.1 km/h 95% 0.0 mm 0.00 W/m2
06:00 13.2 °C 12.4 °C 1001.9 hPa SSW 4.7 km/h 14.5 km/h 95% 0.0 mm 0.00 W/m2
06:05 13.2 °C 12.3 °C 1001.6 hPa SSW 11.1 km/h 19.3 km/h 94% 0.0 mm 0.00 W/m2
06:10 13.2 °C 12.4 °C 1001.6 hPa South 13.0 km/h 14.5 km/h 95% 0.0 mm 0.00 W/m2
06:15 13.3 °C 12.5 °C 1001.6 hPa South 6.4 km/h 20.9 km/h 95% 0.0 mm 0.00 W/m2
06:20 13.3 °C 12.5 °C 1001.6 hPa South 9.7 km/h 12.9 km/h 95% 0.0 mm 0.00 W/m2
06:25 13.3 °C 12.5 °C 1001.6 hPa South 7.9 km/h 12.9 km/h 95% 0.0 mm 0.00 W/m2
06:30 13.3 °C 12.5 °C 1001.2 hPa South 9.7 km/h 14.5 km/h 95% 0.0 mm 0.00 W/m2
06:35 13.3 °C 12.5 °C 1001.2 hPa SSW 3.2 km/h 17.7 km/h 95% 0.0 mm 0.00 W/m2
06:40 13.3 °C 12.5 °C 1001.2 hPa South 3.2 km/h 11.3 km/h 95% 0.0 mm 0.00 W/m2
06:45 13.4 °C 12.6 °C 1001.2 hPa South 3.2 km/h 12.9 km/h 95% 0.0 mm 0.00 W/m2
06:50 13.4 °C 12.6 °C 1001.2 hPa South 6.4 km/h 14.5 km/h 95% 0.0 mm 0.00 W/m2
06:55 13.4 °C 12.6 °C 1001.2 hPa South 11.1 km/h 12.9 km/h 95% 0.0 mm 0.00 W/m2
07:00 13.4 °C 12.5 °C 1000.9 hPa South 13.0 km/h 12.9 km/h 94% 0.0 mm 0.00 W/m2
07:05 13.4 °C 12.5 °C 1000.9 hPa South 7.9 km/h 12.9 km/h 94% 0.0 mm 0.00 W/m2
07:10 13.5 °C 12.7 °C 1000.9 hPa South 6.4 km/h 17.7 km/h 95% 0.0 mm 0.00 W/m2
07:15 13.5 °C 12.6 °C 1000.6 hPa SSW 13.0 km/h 12.9 km/h 94% 0.0 mm 0.00 W/m2
07:20 13.5 °C 12.6 °C 1000.6 hPa SSW 4.7 km/h 11.3 km/h 94% 0.0 mm 0.00 W/m2
07:25 13.5 °C 12.7 °C 1000.9 hPa SW 3.2 km/h 8.0 km/h 95% 0.0 mm 5.00 W/m2
07:30 13.6 °C 12.7 °C 1000.6 hPa SW 3.2 km/h 4.8 km/h 94% 0.0 mm 5.00 W/m2
07:35 13.6 °C 12.8 °C 1000.6 hPa WSW 4.7 km/h 9.7 km/h 95% 0.0 mm 7.00 W/m2
07:40 13.6 °C 12.8 °C 1000.2 hPa WSW 6.4 km/h 9.7 km/h 95% 0.0 mm 18.00 W/m2
07:45 13.6 °C 12.8 °C 1000.2 hPa Calm   3.2 km/h 95% 0.0 mm 35.00 W/m2
07:50 13.6 °C 12.8 °C 1000.2 hPa SSW 7.9 km/h 11.3 km/h 95% 0.0 mm 44.00 W/m2
07:55 13.7 °C 12.9 °C 1000.2 hPa WSW 3.2 km/h 12.9 km/h 95% 0.0 mm 47.00 W/m2
08:00 13.7 °C 12.9 °C 1000.2 hPa SSW 11.1 km/h 11.3 km/h 95% 0.0 mm 51.00 W/m2
08:05 13.7 °C 12.9 °C 1000.2 hPa SSW 3.2 km/h 12.9 km/h 95% 0.0 mm 47.00 W/m2
08:10 13.8 °C 13.0 °C 999.9 hPa South 7.9 km/h 9.7 km/h 95% 0.0 mm 53.00 W/m2
08:15 13.8 °C 13.0 °C 999.9 hPa SSW 7.9 km/h 16.1 km/h 95% 0.0 mm 56.00 W/m2
08:20 13.9 °C 13.1 °C 999.9 hPa SSW 4.7 km/h 12.9 km/h 95% 0.0 mm 56.00 W/m2
08:25 13.9 °C 13.1 °C 999.9 hPa South 11.1 km/h 12.9 km/h 95% 0.0 mm 62.00 W/m2
08:30 13.9 °C 13.1 °C 999.9 hPa SSW 4.7 km/h 11.3 km/h 95% 0.0 mm 60.00 W/m2
08:35 13.9 °C 13.1 °C 999.9 hPa SSW 7.9 km/h 12.9 km/h 95% 0.0 mm 60.00 W/m2
08:40 14.0 °C 13.2 °C 999.5 hPa SSW 4.7 km/h 6.4 km/h 95% 0.0 mm 97.00 W/m2
08:45 14.1 °C 13.3 °C 999.5 hPa SSW 6.4 km/h 6.4 km/h 95% 0.0 mm 93.00 W/m2
08:50 14.1 °C 13.3 °C 999.5 hPa SSW 3.2 km/h 6.4 km/h 95% 0.0 mm 81.00 W/m2
08:55 14.2 °C 13.4 °C 999.5 hPa SSW 4.7 km/h 6.4 km/h 95% 0.0 mm 111.00 W/m2
09:00 14.3 °C 13.5 °C 999.5 hPa SW 4.7 km/h 8.0 km/h 95% 0.0 mm 105.00 W/m2
09:05 14.3 °C 13.5 °C 999.2 hPa Calm   12.9 km/h 95% 0.0 mm 100.00 W/m2
09:10 14.4 °C 13.6 °C 999.2 hPa SW 4.7 km/h 9.7 km/h 95% 0.0 mm 81.00 W/m2
09:15 14.4 °C 13.6 °C 999.2 hPa SW 3.2 km/h 8.0 km/h 95% 0.0 mm 60.00 W/m2
09:20 14.5 °C 13.7 °C 999.2 hPa SW 4.7 km/h 6.4 km/h 95% 0.0 mm 63.00 W/m2
09:25 14.5 °C 13.7 °C 999.2 hPa SW 3.2 km/h 8.0 km/h 95% 0.0 mm 60.00 W/m2
09:30 14.6 °C 13.8 °C 999.2 hPa WSW 7.9 km/h 11.3 km/h 95% 0.0 mm 93.00 W/m2
09:35 14.6 °C 13.8 °C 999.2 hPa WSW 6.4 km/h 9.7 km/h 95% 0.0 mm 90.00 W/m2
09:40 14.6 °C 13.8 °C 998.9 hPa SW 4.7 km/h 14.5 km/h 95% 0.0 mm 97.00 W/m2
09:45 14.6 °C 13.6 °C 998.9 hPa WSW 13.0 km/h 14.5 km/h 94% 0.0 mm 151.00 W/m2
09:50 14.7 °C 13.7 °C 998.9 hPa SW 1.4 km/h 14.5 km/h 94% 0.0 mm 172.00 W/m2
09:55 14.8 °C 13.8 °C 998.5 hPa SW 6.4 km/h 11.3 km/h 94% 0.0 mm 193.00 W/m2
10:00 14.9 °C 13.9 °C 998.5 hPa WSW 6.4 km/h 14.5 km/h 94% 0.0 mm 227.00 W/m2
10:05 15.1 °C 14.1 °C 998.5 hPa WSW 4.7 km/h 12.9 km/h 94% 0.0 mm 192.00 W/m2
10:10 15.1 °C 14.0 °C 998.5 hPa SW 11.1 km/h 12.9 km/h 93% 0.0 mm 204.00 W/m2
10:15 15.2 °C 14.1 °C 998.2 hPa SW 9.7 km/h 12.9 km/h 93% 0.0 mm 248.00 W/m2
10:20 15.2 °C 13.9 °C 998.2 hPa West 11.1 km/h 16.1 km/h 92% 0.0 mm 171.00 W/m2
10:25 15.3 °C 14.0 °C 998.2 hPa West 6.4 km/h 12.9 km/h 92% 0.0 mm 121.00 W/m2
10:30 15.2 °C 13.7 °C 998.2 hPa WSW 6.4 km/h 20.9 km/h 91% 0.0 mm 88.00 W/m2
10:35 15.1 °C 13.5 °C 998.2 hPa SW 7.9 km/h 12.9 km/h 90% 0.0 mm 102.00 W/m2
10:40 14.8 °C 13.2 °C 998.5 hPa SW 14.3 km/h 20.9 km/h 90% 0.0 mm 100.00 W/m2
10:45 14.8 °C 13.0 °C 998.2 hPa SW 7.9 km/h 11.3 km/h 89% 0.0 mm 120.00 W/m2
10:50 14.8 °C 13.0 °C 998.2 hPa SW 11.1 km/h 16.1 km/h 89% 0.0 mm 121.00 W/m2
10:55 14.8 °C 13.0 °C 998.2 hPa SW 16.3 km/h 16.1 km/h 89% 0.0 mm 114.00 W/m2
11:00 14.7 °C 12.9 °C 998.2 hPa SW 11.1 km/h 12.9 km/h 89% 0.0 mm 53.00 W/m2
11:05 14.6 °C 12.8 °C 998.2 hPa WSW 14.3 km/h 16.1 km/h 89% 0.0 mm 69.00 W/m2
11:10 14.5 °C 12.7 °C 997.9 hPa WSW 9.7 km/h 11.3 km/h 89% 0.0 mm 98.00 W/m2
11:15 14.4 °C 12.6 °C 997.9 hPa WSW 6.4 km/h 16.1 km/h 89% 0.0 mm 134.00 W/m2
11:20 14.4 °C 12.6 °C 997.9 hPa WSW 9.7 km/h 16.1 km/h 89% 0.0 mm 100.00 W/m2
11:25 14.4 °C 12.6 °C 997.9 hPa WSW 11.1 km/h 14.5 km/h 89% 0.0 mm 77.00 W/m2
11:30 14.4 °C 12.6 °C 997.5 hPa West 11.1 km/h 14.5 km/h 89% 0.0 mm 84.00 W/m2
11:35 14.4 °C 12.6 °C 997.5 hPa WSW 6.4 km/h 8.0 km/h 89% 0.0 mm 105.00 W/m2
11:40 14.4 °C 12.6 °C 997.5 hPa SW 6.4 km/h 11.3 km/h 89% 0.0 mm 118.00 W/m2
11:45 14.4 °C 12.6 °C 997.2 hPa West 9.7 km/h 12.9 km/h 89% 0.0 mm 139.00 W/m2
11:50 14.4 °C 12.6 °C 997.2 hPa WNW 6.4 km/h 12.9 km/h 89% 0.0 mm 151.00 W/m2
11:55 14.6 °C 12.6 °C 997.2 hPa West 4.7 km/h 11.3 km/h 88% 0.0 mm 397.00 W/m2
12:00 14.7 °C 12.7 °C 996.8 hPa WSW 7.9 km/h 17.7 km/h 88% 0.0 mm 285.00 W/m2
12:05 15.0 °C 13.0 °C 996.8 hPa SSW 14.3 km/h 16.1 km/h 88% 0.0 mm 230.00 W/m2
12:10 14.8 °C 12.7 °C 996.8 hPa WSW 9.7 km/h 20.9 km/h 87% 0.0 mm 195.00 W/m2
12:15 14.8 °C 12.7 °C 996.8 hPa WSW 4.7 km/h 16.1 km/h 87% 0.0 mm 257.00 W/m2
12:20 14.9 °C 12.8 °C 996.8 hPa SW 11.1 km/h 12.9 km/h 87% 0.0 mm 149.00 W/m2
12:25 14.9 °C 12.8 °C 996.8 hPa West 3.2 km/h 11.3 km/h 87% 0.0 mm 128.00 W/m2
12:30 14.9 °C 12.8 °C 996.8 hPa West 7.9 km/h 11.3 km/h 87% 0.0 mm 183.00 W/m2
12:35 14.9 °C 12.8 °C 996.8 hPa West 3.2 km/h 9.7 km/h 87% 0.0 mm 102.00 W/m2
12:40 14.9 °C 12.8 °C 996.5 hPa West 6.4 km/h 19.3 km/h 87% 0.0 mm 98.00 W/m2
12:45 14.9 °C 12.8 °C 996.5 hPa West 7.9 km/h 14.5 km/h 87% 0.0 mm 95.00 W/m2
12:50 14.9 °C 12.8 °C 996.5 hPa WSW 11.1 km/h 12.9 km/h 87% 0.0 mm 176.00 W/m2
12:55 15.0 °C 12.9 °C 996.2 hPa WSW 13.0 km/h 19.3 km/h 87% 0.0 mm 211.00 W/m2
13:00 15.1 °C 13.0 °C 996.2 hPa WSW 9.7 km/h 17.7 km/h 87% 0.0 mm 167.00 W/m2
13:05 15.1 °C 13.0 °C 995.8 hPa WSW 13.0 km/h 14.5 km/h 87% 0.0 mm 105.00 W/m2
13:10 15.1 °C 13.0 °C 995.8 hPa SW 4.7 km/h 9.7 km/h 87% 0.0 mm 104.00 W/m2
13:15 15.1 °C 13.0 °C 995.8 hPa WSW 1.4 km/h 12.9 km/h 87% 0.0 mm 123.00 W/m2
13:20 15.1 °C 13.0 °C 995.5 hPa SW 1.4 km/h 11.3 km/h 87% 0.0 mm 46.00 W/m2
13:25 15.0 °C 12.9 °C 995.5 hPa SSW 11.1 km/h 19.3 km/h 87% 0.0 mm 35.00 W/m2
13:30 14.9 °C 12.8 °C 995.1 hPa WSW 6.4 km/h 12.9 km/h 87% 0.0 mm 62.00 W/m2
13:35 14.9 °C 12.8 °C 995.1 hPa WSW 3.2 km/h 11.3 km/h 87% 0.0 mm 86.00 W/m2
13:40 15.1 °C 13.0 °C 995.1 hPa West 3.2 km/h 8.0 km/h 87% 0.0 mm 223.00 W/m2
13:45 15.6 °C 13.4 °C 995.1 hPa West 3.2 km/h 6.4 km/h 87% 0.0 mm 207.00 W/m2
13:50 15.8 °C 13.5 °C 994.8 hPa West 4.7 km/h 8.0 km/h 86% 0.0 mm 134.00 W/m2
13:55 15.7 °C 13.2 °C 994.8 hPa WSW 4.7 km/h 11.3 km/h 85% 0.0 mm 100.00 W/m2
14:00 15.6 °C 13.1 °C 994.5 hPa Calm   6.4 km/h 85% 0.0 mm 120.00 W/m2
14:05 15.7 °C 13.4 °C 994.5 hPa WSW 1.4 km/h 9.7 km/h 86% 0.0 mm 121.00 W/m2
14:10 15.6 °C 13.1 °C 994.5 hPa WSW 6.4 km/h 11.3 km/h 85% 0.0 mm 109.00 W/m2
14:15 15.6 °C 13.1 °C 994.1 hPa WSW 1.4 km/h 6.4 km/h 85% 0.0 mm 90.00 W/m2
14:20 15.6 °C 13.1 °C 994.1 hPa SW 7.9 km/h 14.5 km/h 85% 0.0 mm 113.00 W/m2
14:25 15.6 °C 13.1 °C 993.8 hPa Calm   9.7 km/h 85% 0.0 mm 195.00 W/m2
14:30 15.7 °C 13.2 °C 993.8 hPa WSW 13.0 km/h 12.9 km/h 85% 0.0 mm 111.00 W/m2
14:35 15.6 °C 13.1 °C 993.8 hPa SSW 9.7 km/h 11.3 km/h 85% 0.0 mm 91.00 W/m2
14:40 15.4 °C 13.1 °C 993.8 hPa SW 16.3 km/h 19.3 km/h 86% 0.0 mm 83.00 W/m2
14:45 15.4 °C 13.1 °C 993.8 hPa South 4.7 km/h 9.7 km/h 86% 0.0 mm 54.00 W/m2
14:50 15.3 °C 13.1 °C 993.8 hPa SSW 7.9 km/h 11.3 km/h 87% 0.0 mm 44.00 W/m2
14:55 15.2 °C 13.0 °C 993.5 hPa SW 6.4 km/h 20.9 km/h 87% 0.0 mm 42.00 W/m2
15:00 15.2 °C 13.2 °C 993.5 hPa SSW 11.1 km/h 16.1 km/h 88% 0.0 mm 49.00 W/m2
15:05 15.2 °C 13.2 °C 993.5 hPa SW 4.7 km/h 6.4 km/h 88% 0.0 mm 35.00 W/m2
15:10 15.1 °C 13.1 °C 993.1 hPa SSW 4.7 km/h 8.0 km/h 88% 0.0 mm 32.00 W/m2
15:15 15.1 °C 13.1 °C 993.1 hPa SW 3.2 km/h 4.8 km/h 88% 0.0 mm 18.00 W/m2
15:20 15.1 °C 13.3 °C 992.8 hPa SW 7.9 km/h 9.7 km/h 89% 0.0 mm 51.00 W/m2
15:25 15.1 °C 13.3 °C 992.8 hPa SSW 14.3 km/h 16.1 km/h 89% 0.0 mm 56.00 W/m2
15:30 15.1 °C 13.5 °C 992.8 hPa SSW 4.7 km/h 11.3 km/h 90% 0.0 mm 53.00 W/m2
15:35 15.1 °C 13.5 °C 992.4 hPa SSW 7.9 km/h 14.5 km/h 90% 0.0 mm 37.00 W/m2
15:40 15.1 °C 13.5 °C 992.4 hPa SW 4.7 km/h 17.7 km/h 90% 0.0 mm 25.00 W/m2
15:45 15.1 °C 13.6 °C 992.4 hPa SW 6.4 km/h 6.4 km/h 91% 0.0 mm 12.00 W/m2
15:50 15.1 °C 13.6 °C 992.1 hPa SSW 9.7 km/h 14.5 km/h 91% 0.0 mm 7.00 W/m2
15:55 15.0 °C 13.5 °C 992.1 hPa SW 6.4 km/h 16.1 km/h 91% 0.3 mm 7.00 W/m2
16:00 14.9 °C 13.4 °C 992.1 hPa SSW 3.2 km/h 9.7 km/h 91% 0.3 mm 7.00 W/m2
16:05 14.9 °C 13.6 °C 991.8 hPa SSW 1.4 km/h 11.3 km/h 92% 0.5 mm 16.00 W/m2
16:10 14.9 °C 13.6 °C 991.8 hPa SSW 9.7 km/h 16.1 km/h 92% 0.5 mm 14.00 W/m2
16:15 14.9 °C 13.6 °C 991.4 hPa SSW 6.4 km/h 16.1 km/h 92% 0.5 mm 9.00 W/m2
16:20 14.9 °C 13.6 °C 991.4 hPa SSW 7.9 km/h 9.7 km/h 92% 0.5 mm 11.00 W/m2
16:25 14.9 °C 13.8 °C 991.4 hPa SSW 17.7 km/h 17.7 km/h 93% 0.5 mm 5.00 W/m2
16:30 14.9 °C 13.8 °C 991.1 hPa SSW 19.5 km/h 20.9 km/h 93% 0.5 mm 5.00 W/m2
16:35 15.0 °C 13.9 °C 991.1 hPa South 1.4 km/h 19.3 km/h 93% 0.5 mm 0.00 W/m2
16:40 15.1 °C 14.0 °C 991.1 hPa South 7.9 km/h 19.3 km/h 93% 0.5 mm 0.00 W/m2
16:45 15.1 °C 14.0 °C 990.7 hPa SW 6.4 km/h 17.7 km/h 93% 0.5 mm 0.00 W/m2
16:50 15.1 °C 14.0 °C 990.7 hPa South 6.4 km/h 14.5 km/h 93% 0.5 mm 0.00 W/m2
16:55 15.1 °C 14.0 °C 990.7 hPa SSW 11.1 km/h 17.7 km/h 93% 0.5 mm 0.00 W/m2
17:00 15.2 °C 14.1 °C 990.7 hPa South 11.1 km/h 12.9 km/h 93% 0.5 mm 0.00 W/m2
17:05 15.2 °C 14.1 °C 990.7 hPa SSW 4.7 km/h 16.1 km/h 93% 0.3 mm 0.00 W/m2
17:10 15.2 °C 14.1 °C 990.7 hPa South 7.9 km/h 14.5 km/h 93% 0.3 mm 0.00 W/m2
17:15 15.2 °C 14.1 °C 990.4 hPa South 19.5 km/h 19.3 km/h 93% 0.3 mm 0.00 W/m2
17:20 15.2 °C 14.1 °C 990.4 hPa SSW 11.1 km/h 11.3 km/h 93% 0.3 mm 0.00 W/m2
17:25 15.2 °C 14.1 °C 990.1 hPa SSW 11.1 km/h 16.1 km/h 93% 0.3 mm 0.00 W/m2
17:30 15.2 °C 14.1 °C 990.1 hPa SW 4.7 km/h 11.3 km/h 93% 0.3 mm 0.00 W/m2
17:35 15.2 °C 14.1 °C 990.1 hPa SSW 3.2 km/h 11.3 km/h 93% 0.3 mm 0.00 W/m2
17:40 15.2 °C 14.1 °C 990.1 hPa SW 4.7 km/h 17.7 km/h 93% 0.3 mm 0.00 W/m2
17:45 15.2 °C 14.1 °C 990.1 hPa SSW 3.2 km/h 14.5 km/h 93% 0.0 mm 0.00 W/m2
17:50 15.2 °C 14.1 °C 989.7 hPa SSW 6.4 km/h 14.5 km/h 93% 0.0 mm 0.00 W/m2
17:55 15.2 °C 14.1 °C 989.7 hPa SSW 3.2 km/h 11.3 km/h 93% 0.0 mm 0.00 W/m2
18:00 15.2 °C 14.1 °C 989.7 hPa SSW 4.7 km/h 12.9 km/h 93% 0.0 mm 0.00 W/m2
18:05 15.3 °C 14.2 °C 989.7 hPa South 6.4 km/h 19.3 km/h 93% 0.0 mm 0.00 W/m2
18:10 15.3 °C 14.2 °C 989.4 hPa SW 7.9 km/h 20.9 km/h 93% 0.0 mm 0.00 W/m2
18:15 15.3 °C 14.0 °C 989.4 hPa SSW 7.9 km/h 17.7 km/h 92% 0.0 mm 0.00 W/m2
18:20 15.3 °C 14.0 °C 989.4 hPa SSW 3.2 km/h 17.7 km/h 92% 0.0 mm 0.00 W/m2
18:25 15.3 °C 14.0 °C 989.4 hPa SW 9.7 km/h 19.3 km/h 92% 0.0 mm 0.00 W/m2
18:30 15.3 °C 14.0 °C 989.4 hPa SSW 6.4 km/h 22.5 km/h 92% 0.0 mm 0.00 W/m2
18:35 15.3 °C 14.0 °C 989.1 hPa WSW 7.9 km/h 16.1 km/h 92% 0.0 mm 0.00 W/m2
18:40 15.2 °C 13.9 °C 989.1 hPa SSW 4.7 km/h 16.1 km/h 92% 0.0 mm 0.00 W/m2
18:45 15.3 °C 14.0 °C 989.1 hPa SSW 3.2 km/h 19.3 km/h 92% 0.0 mm 0.00 W/m2
18:50 15.3 °C 14.0 °C 989.1 hPa SSE 11.1 km/h 19.3 km/h 92% 0.0 mm 0.00 W/m2
18:55 15.3 °C 14.0 °C 989.1 hPa SSW 7.9 km/h 11.3 km/h 92% 0.0 mm 0.00 W/m2
19:00 15.3 °C 14.0 °C 989.1 hPa SW 13.0 km/h 24.1 km/h 92% 0.0 mm 0.00 W/m2
19:05 15.3 °C 14.0 °C 988.7 hPa SSE 11.1 km/h 22.5 km/h 92% 0.0 mm 0.00 W/m2
19:10 15.3 °C 14.0 °C 988.7 hPa Calm   14.5 km/h 92% 0.0 mm 0.00 W/m2
19:15 15.3 °C 14.0 °C 988.7 hPa SSW 6.4 km/h 20.9 km/h 92% 0.0 mm 0.00 W/m2
19:20 15.4 °C 13.9 °C 988.4 hPa SW 13.0 km/h 17.7 km/h 91% 0.0 mm 0.00 W/m2
19:25 15.4 °C 13.9 °C 988.4 hPa SW 11.1 km/h 11.3 km/h 91% 0.0 mm 0.00 W/m2
19:30 15.5 °C 14.0 °C 988.0 hPa SW 7.9 km/h 12.9 km/h 91% 0.0 mm 0.00 W/m2
19:35 15.5 °C 14.0 °C 988.0 hPa WSW 17.7 km/h 17.7 km/h 91% 0.0 mm 0.00 W/m2
19:40 15.5 °C 13.9 °C 988.0 hPa WSW 17.7 km/h 24.1 km/h 90% 0.0 mm 0.00 W/m2
19:45 15.6 °C 14.0 °C 988.0 hPa SSW 9.7 km/h 17.7 km/h 90% 0.0 mm 0.00 W/m2
19:50 15.5 °C 13.9 °C 988.0 hPa West 6.4 km/h 16.1 km/h 90% 0.0 mm 0.00 W/m2
19:55 15.5 °C 13.9 °C 988.0 hPa SW 13.0 km/h 20.9 km/h 90% 0.0 mm 0.00 W/m2
20:00 15.4 °C 13.8 °C 987.7 hPa SSW 9.7 km/h 16.1 km/h 90% 0.0 mm 0.00 W/m2
20:05 15.4 °C 13.6 °C 987.7 hPa Calm   14.5 km/h 89% 0.0 mm 0.00 W/m2
20:10 15.4 °C 13.6 °C 987.4 hPa WSW 11.1 km/h 17.7 km/h 89% 0.0 mm 0.00 W/m2
20:15 15.3 °C 13.7 °C 987.4 hPa South 6.4 km/h 11.3 km/h 90% 0.0 mm 0.00 W/m2
20:20 15.2 °C 13.6 °C 987.4 hPa SW 9.7 km/h 12.9 km/h 90% 0.0 mm 0.00 W/m2
20:25 15.1 °C 13.6 °C 987.0 hPa SW 6.4 km/h 11.3 km/h 91% 0.0 mm 0.00 W/m2
20:30 15.1 °C 13.6 °C 987.0 hPa SW 3.2 km/h 8.0 km/h 91% 0.0 mm 0.00 W/m2
20:35 15.1 °C 13.6 °C 987.0 hPa WSW 4.7 km/h 9.7 km/h 91% 0.0 mm 0.00 W/m2
20:40 15.0 °C 13.5 °C 987.0 hPa WSW 4.7 km/h 9.7 km/h 91% 0.3 mm 0.00 W/m2
20:45 15.0 °C 13.7 °C 987.0 hPa WSW 3.2 km/h 9.7 km/h 92% 0.3 mm 0.00 W/m2
20:50 14.9 °C 13.6 °C 987.0 hPa WSW 13.0 km/h 14.5 km/h 92% 0.3 mm 0.00 W/m2
20:55 14.9 °C 13.6 °C 986.7 hPa WSW 1.4 km/h 11.3 km/h 92% 0.5 mm 0.00 W/m2
21:00 14.9 °C 13.6 °C 987.0 hPa WSW 4.7 km/h 11.3 km/h 92% 0.5 mm 0.00 W/m2
21:05 14.8 °C 13.5 °C 986.7 hPa SW 6.4 km/h 12.9 km/h 92% 0.5 mm 0.00 W/m2
21:10 14.8 °C 13.7 °C 986.7 hPa WSW 7.9 km/h 12.9 km/h 93% 0.8 mm 0.00 W/m2
21:15 14.8 °C 13.7 °C 986.7 hPa WSW 11.1 km/h 16.1 km/h 93% 0.8 mm 0.00 W/m2
21:20 14.8 °C 13.7 °C 986.7 hPa WSW 3.2 km/h 9.7 km/h 93% 0.8 mm 0.00 W/m2
21:25 14.7 °C 13.6 °C 986.7 hPa West 7.9 km/h 12.9 km/h 93% 0.8 mm 0.00 W/m2
21:30 14.7 °C 13.6 °C 986.7 hPa WSW 6.4 km/h 14.5 km/h 93% 0.8 mm 0.00 W/m2
21:35 14.6 °C 13.5 °C 986.7 hPa West 9.7 km/h 19.3 km/h 93% 0.8 mm 0.00 W/m2
21:40 14.6 °C 13.5 °C 986.7 hPa West 6.4 km/h 17.7 km/h 93% 0.5 mm 0.00 W/m2
21:45 14.4 °C 13.3 °C 986.7 hPa West 3.2 km/h 12.9 km/h 93% 0.5 mm 0.00 W/m2
21:50 14.3 °C 13.0 °C 986.7 hPa West 11.1 km/h 25.7 km/h 92% 0.8 mm 0.00 W/m2
21:55 14.2 °C 12.9 °C 986.7 hPa West 6.4 km/h 19.3 km/h 92% 0.5 mm 0.00 W/m2
22:00 14.1 °C 12.8 °C 986.3 hPa WNW 19.5 km/h 22.5 km/h 92% 0.5 mm 0.00 W/m2
22:05 14.1 °C 12.7 °C 986.3 hPa West 4.7 km/h 24.1 km/h 91% 0.5 mm 0.00 W/m2
22:10 14.1 °C 12.7 °C 986.3 hPa West 7.9 km/h 16.1 km/h 91% 0.3 mm 0.00 W/m2
22:15 14.1 °C 12.7 °C 986.3 hPa West 7.9 km/h 24.1 km/h 91% 0.3 mm 0.00 W/m2
22:20 14.0 °C 12.4 °C 986.3 hPa West 1.4 km/h 14.5 km/h 90% 0.3 mm 0.00 W/m2
22:25 14.0 °C 12.4 °C 986.0 hPa West 6.4 km/h 11.3 km/h 90% 0.3 mm 0.00 W/m2
22:30 13.9 °C 12.3 °C 986.3 hPa SW 6.4 km/h 16.1 km/h 90% 0.3 mm 0.00 W/m2
22:35 13.9 °C 12.3 °C 986.0 hPa West 4.7 km/h 16.1 km/h 90% 0.3 mm 0.00 W/m2
22:40 13.9 °C 12.3 °C 986.0 hPa WSW 4.7 km/h 19.3 km/h 90% 0.3 mm 0.00 W/m2
22:45 14.0 °C 12.4 °C 986.0 hPa WSW 9.7 km/h 16.1 km/h 90% 0.3 mm 0.00 W/m2
22:50 14.0 °C 12.2 °C 986.0 hPa West 4.7 km/h 14.5 km/h 89% 0.0 mm 0.00 W/m2
22:55 13.9 °C 12.1 °C 986.3 hPa West 9.7 km/h 16.1 km/h 89% 0.0 mm 0.00 W/m2
23:00 13.9 °C 12.1 °C 986.3 hPa WSW 14.3 km/h 24.1 km/h 89% 0.0 mm 0.00 W/m2
23:05 13.9 °C 12.1 °C 986.3 hPa West 7.9 km/h 12.9 km/h 89% 0.0 mm 0.00 W/m2
23:10 13.9 °C 12.1 °C 986.3 hPa WSW 7.9 km/h 9.7 km/h 89% 0.0 mm 0.00 W/m2
23:15 13.8 °C 12.0 °C 986.0 hPa West 7.9 km/h 19.3 km/h 89% 0.0 mm 0.00 W/m2
23:20 13.7 °C 11.9 °C 986.0 hPa WSW 4.7 km/h 12.9 km/h 89% 0.0 mm 0.00 W/m2
23:25 13.6 °C 12.0 °C 986.0 hPa SW 9.7 km/h 17.7 km/h 90% 0.0 mm 0.00 W/m2
23:30 13.5 °C 11.9 °C 986.0 hPa WSW 16.3 km/h 20.9 km/h 90% 0.0 mm 0.00 W/m2
23:35 13.4 °C 11.8 °C 986.0 hPa SW 11.1 km/h 19.3 km/h 90% 0.0 mm 0.00 W/m2
23:40 13.4 °C 11.8 °C 986.0 hPa West 17.7 km/h 20.9 km/h 90% 0.0 mm 0.00 W/m2
23:45 13.4 °C 12.0 °C 986.0 hPa West 13.0 km/h 20.9 km/h 91% 0.0 mm 0.00 W/m2
23:50 13.4 °C 12.0 °C 985.7 hPa West 7.9 km/h 14.5 km/h 91% 0.0 mm 0.00 W/m2
23:55 13.3 °C 11.9 °C 986.0 hPa West 14.3 km/h 17.7 km/h 91% 0.0 mm 0.00 W/m2